• In Slovakia
  • List of Countries
  • For 7 days
  • Water Temperature
  • Satellite Maps
  • Weather Map
  • Weather Widgets
  • user-avatar
    Login

    Hourly Weather Ali Bayramli

    Today, 20 November, Monday

    Time Temperature Precipitation Wind Pressure Humidity
    00:00 +14°C° 0 mm 2 mps 758 mmHg 75%
    01:00 +13°C° 0 mm 2 mps 758 mmHg 74%
    02:00 +13°C° 0 mm 2 mps 758 mmHg 72%
    03:00 +12°C° 0 mm 3 mps 758 mmHg 72%
    04:00 +12°C° 0 mm 3 mps 758 mmHg 71%
    05:00 +12°C° 0 mm 3 mps 758 mmHg 69%
    06:00 +11°C° 0 mm 3 mps 758 mmHg 68%
    07:00 +12°C° 0 mm 3 mps 758 mmHg 61%
    08:00 +14°C° 0 mm 3 mps 757 mmHg 54%
    09:00 +15°C° 0 mm 4 mps 757 mmHg 46%
    10:00 +17°C° 0 mm 4 mps 757 mmHg 41%
    11:00 +19°C° 0 mm 4 mps 757 mmHg 36%
    12:00 +20°C° 0 mm 4 mps 757 mmHg 31%
    13:00 +20°C° 0 mm 4 mps 757 mmHg 31%
    14:00 +21°C° 0 mm 4 mps 757 mmHg 30%
    15:00 +21°C° 0 mm 4 mps 756 mmHg 30%
    16:00 +20°C° 0 mm 4 mps 756 mmHg 33%
    17:00 +19°C° 0 mm 3 mps 757 mmHg 35%
    18:00 +18°C° 0 mm 3 mps 757 mmHg 38%
    19:00 +17°C° 0 mm 3 mps 757 mmHg 39%
    20:00 +17°C° 0 mm 3 mps 756 mmHg 41%
    21:00 +16°C° 0 mm 3 mps 756 mmHg 42%
    22:00 +16°C° 0 mm 3 mps 756 mmHg 44%
    23:00 +16°C° 0 mm 3 mps 756 mmHg 45%

    Tomorrow, 21 November, Tuesday

    Time Temperature Precipitation Wind Pressure Humidity
    00:00 +14°C° 0 mm 3 mps 756 mmHg 46%
    01:00 +14°C° 0 mm 3 mps 755 mmHg 46%
    02:00 +14°C° 0 mm 3 mps 755 mmHg 45%
    03:00 +14°C° 0 mm 3 mps 755 mmHg 44%
    04:00 +13°C° 0 mm 3 mps 755 mmHg 44%
    05:00 +13°C° 0 mm 4 mps 754 mmHg 44%
    06:00 +13°C° 0 mm 4 mps 754 mmHg 44%
    07:00 +14°C° 0 mm 4 mps 754 mmHg 42%
    08:00 +15°C° 0 mm 4 mps 754 mmHg 39%
    09:00 +17°C° 0 mm 4 mps 754 mmHg 37%
    10:00 +18°C° 0 mm 4 mps 753 mmHg 34%
    11:00 +19°C° 0 mm 4 mps 753 mmHg 32%
    12:00 +21°C° 0 mm 4 mps 752 mmHg 29%
    13:00 +21°C° 0 mm 4 mps 752 mmHg 29%
    14:00 +21°C° 0 mm 4 mps 751 mmHg 29%
    15:00 +21°C° 0 mm 4 mps 751 mmHg 29%
    16:00 +20°C° 0 mm 3 mps 751 mmHg 31%
    17:00 +19°C° 0 mm 3 mps 751 mmHg 33%
    18:00 +18°C° 0 mm 3 mps 751 mmHg 35%
    19:00 +18°C° 0 mm 3 mps 751 mmHg 36%
    20:00 +17°C° 0 mm 3 mps 750 mmHg 38%
    21:00 +17°C° 0 mm 3 mps 750 mmHg 39%
    22:00 +16°C° 0 mm 3 mps 750 mmHg 39%
    23:00 +16°C° 0 mm 3 mps 749 mmHg 40%

    Day after tomorrow, 22 November, Wednesday

    Time Temperature Precipitation Wind Pressure Humidity
    00:00 +14°C° 0 mm 3 mps 749 mmHg 40%
    01:00 +14°C° 0 mm 3 mps 749 mmHg 41%
    02:00 +14°C° 0 mm 3 mps 749 mmHg 42%
    03:00 +14°C° 0 mm 3 mps 749 mmHg 42%
    04:00 +13°C° 0 mm 4 mps 749 mmHg 43%
    05:00 +13°C° 0 mm 4 mps 749 mmHg 43%
    06:00 +13°C° 0 mm 5 mps 749 mmHg 44%
    07:00 +13°C° 0 mm 5 mps 750 mmHg 45%
    08:00 +14°C° 0 mm 5 mps 751 mmHg 46%
    09:00 +14°C° 0 mm 5 mps 752 mmHg 47%
    10:00 +15°C° 0 mm 5 mps 752 mmHg 47%
    11:00 +15°C° 0 mm 5 mps 753 mmHg 47%
    12:00 +16°C° 0 mm 6 mps 753 mmHg 47%
    13:00 +16°C° 0 mm 6 mps 753 mmHg 47%
    14:00 +15°C° 0 mm 6 mps 754 mmHg 48%
    15:00 +15°C° 0 mm 6 mps 754 mmHg 48%
    16:00 +14°C° 0.2 mm 6 mps 755 mmHg 52%
    17:00 +13°C° 0.2 mm 6 mps 756 mmHg 55%
    18:00 +11°C° 0.2 mm 7 mps 756 mmHg 59%
    19:00 +11°C° 0.1 mm 7 mps 757 mmHg 59%
    20:00 +11°C° 0.1 mm 7 mps 757 mmHg 60%
    21:00 +10°C° 0.1 mm 7 mps 757 mmHg 60%
    22:00 +10°C° 0.1 mm 7 mps 758 mmHg 61%
    23:00 +9°C° 0.1 mm 6 mps 758 mmHg 62%

    23 November, Thursday

    Time Temperature Precipitation Wind Pressure Humidity
    00:00 +9°C° 0.1 mm 6 mps 758 mmHg 64%
    01:00 +9°C° 0.2 mm 6 mps 758 mmHg 65%
    02:00 +8°C° 0.2 mm 6 mps 758 mmHg 67%
    03:00 +8°C° 0.2 mm 5 mps 758 mmHg 68%
    04:00 +8°C° 0.3 mm 5 mps 759 mmHg 70%
    05:00 +7°C° 0.3 mm 4 mps 759 mmHg 71%
    06:00 +7°C° 0.3 mm 4 mps 759 mmHg 72%
    07:00 +8°C° 0.4 mm 3 mps 759 mmHg 74%
    08:00 +8°C° 0.4 mm 3 mps 759 mmHg 75%
    09:00 +8°C° 0.4 mm 3 mps 760 mmHg 76%
    10:00 +8°C° 0.2 mm 3 mps 759 mmHg 74%
    11:00 +8°C° 0.2 mm 2 mps 759 mmHg 72%
    12:00 +9°C° 0.2 mm 2 mps 759 mmHg 70%
    13:00 +9°C° 0 mm 2 mps 759 mmHg 65%
    14:00 +10°C° 0 mm 3 mps 758 mmHg 59%
    15:00 +11°C° 0 mm 3 mps 758 mmHg 53%
    16:00 +10°C° 0 mm 3 mps 758 mmHg 54%
    17:00 +10°C° 0 mm 2 mps 759 mmHg 55%
    18:00 +9°C° 0 mm 2 mps 759 mmHg 56%
    19:00 +9°C° 0 mm 2 mps 759 mmHg 56%
    20:00 +9°C° 0 mm 2 mps 760 mmHg 56%
    21:00 +9°C° 0 mm 3 mps 760 mmHg 56%
    22:00 +8°C° 0 mm 3 mps 760 mmHg 55%
    23:00 +8°C° 0 mm 3 mps 760 mmHg 54%

    24 November, Friday

    Time Temperature Precipitation Wind Pressure Humidity
    00:00 +8°C° 0 mm 3 mps 760 mmHg 53%
    01:00 +8°C° 0 mm 3 mps 760 mmHg 51%
    02:00 +7°C° 0 mm 3 mps 760 mmHg 48%
    03:00 +7°C° 0 mm 3 mps 760 mmHg 46%
    04:00 +7°C° 0 mm 3 mps 761 mmHg 48%
    05:00 +7°C° 0 mm 3 mps 761 mmHg 50%
    06:00 +7°C° 0 mm 3 mps 762 mmHg 51%
    07:00 +6°C° 0 mm 4 mps 762 mmHg 51%
    08:00 +7°C° 0 mm 4 mps 763 mmHg 50%
    09:00 +7°C° 0 mm 4 mps 763 mmHg 49%
    10:00 +8°C° 0 mm 4 mps 763 mmHg 47%
    11:00 +10°C° 0 mm 4 mps 763 mmHg 45%
    12:00 +10°C° 0 mm 4 mps 762 mmHg 43%
    13:00 +10°C° 0 mm 4 mps 762 mmHg 41%
    14:00 +10°C° 0 mm 4 mps 762 mmHg 39%
    15:00 +11°C° 0 mm 4 mps 762 mmHg 38%
    16:00 +10°C° 0 mm 4 mps 762 mmHg 39%
    17:00 +8°C° 0 mm 4 mps 763 mmHg 39%
    18:00 +7°C° 0 mm 4 mps 763 mmHg 40%
    19:00 +7°C° 0 mm 4 mps 763 mmHg 40%
    20:00 +6°C° 0 mm 4 mps 763 mmHg 40%
    21:00 +6°C° 0 mm 4 mps 763 mmHg 40%
    22:00 +6°C° 0 mm 4 mps 763 mmHg 39%
    23:00 +5°C° 0 mm 4 mps 763 mmHg 39%

    25 November, Saturday

    Time Temperature Precipitation Wind Pressure Humidity
    00:00 +5°C° 0 mm 4 mps 763 mmHg 38%
    01:00 +4°C° 0 mm 4 mps 763 mmHg 38%
    02:00 +4°C° 0 mm 4 mps 763 mmHg 37%
    03:00 +4°C° 0 mm 4 mps 763 mmHg 37%
    04:00 +3°C° 0 mm 5 mps 764 mmHg 38%
    05:00 +2°C° 0 mm 5 mps 764 mmHg 39%
    06:00 +2°C° 0 mm 5 mps 764 mmHg 40%
    07:00 +3°C° 0 mm 6 mps 765 mmHg 38%
    08:00 +4°C° 0 mm 7 mps 765 mmHg 36%
    09:00 +5°C° 0 mm 8 mps 765 mmHg 33%
    10:00 +6°C° 0 mm 8 mps 765 mmHg 32%
    11:00 +8°C° 0 mm 9 mps 765 mmHg 31%
    12:00 +10°C° 0 mm 9 mps 765 mmHg 29%
    13:00 +10°C° 0 mm 9 mps 765 mmHg 29%
    14:00 +10°C° 0 mm 9 mps 765 mmHg 29%
    15:00 +10°C° 0 mm 8 mps 766 mmHg 30%
    16:00 +9°C° 0 mm 7 mps 766 mmHg 34%
    17:00 +8°C° 0 mm 5 mps 767 mmHg 38%
    18:00 +8°C° 0 mm 3 mps 768 mmHg 43%
    19:00 +7°C° 0 mm 3 mps 768 mmHg 45%
    20:00 +7°C° 0 mm 3 mps 768 mmHg 47%
    21:00 +7°C° 0 mm 3 mps 769 mmHg 49%
    22:00 +5°C° 0 mm 3 mps 769 mmHg 50%
    23:00 +6°C° 0 mm 2 mps 769 mmHg 52%
    Show more